RH
64 62 60 61 61 61 61 60 58 54 52 53 53 50 49 47 47 45 37 30 26 26 31 37 37 36 36 37 36 35 34 34 37 41 44 46 47 48 48 49 48 50
64 64 62 63 62 61 60 59 58 55 51 52 52 49 46 45 46 45 39 30 25 26 32 37 37 36 35 36 36 34 33 34 36 39 41 44 45 47 47 47 47 50
56 57 60 63 63 61 60 59 59 57 52 50 51 49 46 45 46 45 41 33 26 27 33 36 36 35 35 34 34 33 32 33 34 37 39 42 44 45 46 46 46 49
52 51 54 59 62 62 62 61 60 59 56 50 50 49 45 46 47 46 43 37 29 29 33 37 38 36 34 33 33 32 32 32 33 35 37 40 43 44 45 45 46 48
51 52 52 55 59 63 65 63 60 61 59 51 48 48 45 46 48 47 45 40 33 32 35 39 41 38 34 32 32 32 32 32 33 35 36 38 41 43 44 44 44 48
51 52 53 53 57 62 63 63 61 61 60 52 47 48 46 45 48 48 46 42 38 37 39 41 43 41 36 33 32 32 32 32 32 34 35 37 39 42 43 43 44 47
49 50 52 53 56 58 60 62 64 62 59 54 49 49 47 45 47 48 46 44 41 40 42 42 42 42 37 35 34 32 31 31 32 34 35 35 38 41 42 43 45 48
50 50 51 53 54 56 58 62 65 62 61 58 52 50 49 45 45 47 47 46 44 43 43 42 42 41 39 37 36 33 31 30 31 33 34 35 37 39 41 44 47 50
53 53 53 52 53 54 57 61 63 61 61 60 54 51 50 46 45 47 48 48 48 46 45 44 43 42 41 40 38 35 33 31 30 31 33 34 36 38 41 43 46 49
52 52 53 52 51 52 55 58 59 60 61 61 56 53 53 50 47 48 49 50 50 49 47 46 45 44 43 42 40 37 34 32 30 31 32 33 35 37 40 42 44 48
50 49 50 51 49 50 53 55 56 57 60 63 62 59 58 54 50 50 52 52 51 51 50 49 47 46 46 45 42 39 37 34 31 31 32 33 35 37 40 43 44 47
52 51 50 50 49 49 51 54 55 56 60 66 68 66 62 57 53 52 53 53 52 51 53 52 50 48 48 47 45 43 40 36 33 32 32 33 35 37 39 43 45 47
49 49 50 50 50 50 51 54 54 55 61 68 72 71 66 58 54 54 53 52 53 52 54 55 53 51 50 49 49 46 43 39 35 33 33 34 36 37 39 42 44 46
42 41 45 48 50 51 53 55 55 56 63 70 74 74 69 57 51 53 54 53 54 54 55 56 56 54 52 51 51 49 46 41 36 34 34 35 37 38 39 41 42 44
44 42 43 47 49 51 54 56 55 54 61 70 75 74 70 60 52 53 56 56 56 55 56 58 57 56 54 52 52 51 48 43 39 36 36 36 39 40 40 40 41 43
50 48 46 48 49 50 54 57 55 53 57 66 74 76 72 66 59 57 58 59 58 57 57 58 59 57 55 54 52 51 50 47 43 39 38 38 40 42 41 39 40 42
52 52 49 49 49 49 54 56 55 53 54 59 67 74 74 71 65 60 59 60 60 58 58 59 60 58 57 56 53 52 52 50 47 43 41 41 42 43 41 40 39 42
49 53 51 49 50 50 51 52 51 51 52 53 58 65 70 72 70 65 62 62 61 60 60 61 61 59 58 57 54 53 53 52 49 46 43 42 44 44 43 41 41 41
51 53 50 46 47 46 46 46 46 48 50 53 57 61 65 71 74 71 67 64 62 61 62 63 63 61 60 58 57 56 55 54 52 48 45 44 45 46 44 42 41 42
60 58 52 45 42 41 40 41 43 45 47 51 57 61 62 67 73 76 74 70 65 62 62 65 65 63 61 60 59 58 57 56 54 51 48 46 47 48 46 42 41 41
63 64 61 53 45 42 41 40 41 44 46 50 55 59 59 59 64 72 75 73 70 66 64 65 65 64 63 61 60 59 59 59 57 54 50 47 48 50 48 43 41 40
57 60 67 66 57 49 47 45 43 47 51 52 53 57 58 54 54 62 68 69 69 69 66 64 65 65 63 62 61 61 60 60 59 56 52 49 49 51 49 43 41 41
53 52 59 68 66 59 56 53 48 50 57 56 55 60 61 55 53 59 63 62 62 64 63 61 63 66 65 63 63 62 60 61 62 58 54 51 49 51 49 44 41 41
56 54 56 64 68 65 65 63 54 51 55 55 56 62 63 56 55 62 66 62 59 61 62 60 59 63 66 65 66 66 62 62 64 61 55 52 51 51 50 45 41 41
55 59 61 65 66 63 66 70 64 58 57 57 59 63 58 53 59 67 70 67 61 60 62 60 55 58 64 66 67 67 66 66 67 63 56 53 51 51 49 45 41 41
53 59 61 63 64 63 63 66 64 63 63 63 63 62 53 50 57 64 68 70 67 63 62 59 54 53 59 65 67 66 67 70 71 65 57 53 52 50 48 45 41 40